Location: Shenandoah County Park
(38.9356°N, 78.4524°W)
Time: 02:45:44
(UTC-04:00)

SR - Pass Details

Date: 16 February 2023
Orbit: 583 x 866 km, 66.7° (Epoch: 31 March)

Event Time Altitude Azimuth Distance (km) Brightness Sun altitude
Rises 12:04:43 0° 232° (SW) 3,192 ? 38.5°
Reaches altitude 10° 12:07:24 10° 242° (WSW) 2,220 ? 38.6°
Maximum altitude 12:11:53 32° 305° (NW) 1,183 ? 38.7°
Drops below altitude 10° 12:16:05 10° 9° (N) 2,068 ? 38.7°
Sets 12:18:31 0° 20° (NNE) 2,939 ? 38.8°
